Powrót do katalogu

FENGYUN 1C DEB

AktywnySSO
NORAD 30013·DEBRIS·🇨🇳 China

Wystrzelony May 10, 1999 z Taiyuan Satellite Launch Center

Loading…

Następne Przeloty (najbliższe 24 godziny)

TLE

ŚwieżeSource: Space-Track

Epoka: Sep 14, 2026, 08:54 UTC

1 30013U 99025MN  26257.37150344  .00000134  00000-0  14251-3 0  9995
2 30013  99.5582 288.6174 0127955  31.0176 342.0804 13.87980031995059

Śledź FENGYUN 1C DEB w czasie rzeczywistym z AllMySat

Download on the App Store